Wind_Speed
6 6 6 6 6 5 5 4 3 3 3 2 3 3 4 4 5 6 7 7 8 8 9 10 10 11 12 13 13 14 15 16 17 18 18 18 18 19
5 5 6 6 6 5 5 4 4 4 4 4 4 5 6 6 6 6 7 8 9 9 9 10 11 12 13 14 15 16 16 17 19 19 19 20 20 21
5 4 5 5 5 5 5 5 5 5 5 5 6 7 7 8 8 8 8 9 10 10 11 11 12 13 15 16 17 17 18 19 21 22 22 22 23 23
4 4 4 5 5 5 5 5 6 6 6 7 8 8 9 9 9 9 10 11 12 12 13 13 14 15 17 18 20 21 21 22 23 24 25 26 25 26
3 4 4 5 5 6 6 6 7 7 8 9 9 9 10 9 10 11 12 13 14 15 15 16 17 18 19 20 22 23 24 25 26 27 28 29 29 30
4 4 5 6 6 7 7 7 8 9 10 10 11 11 11 12 12 14 15 16 16 17 18 19 20 21 22 23 24 26 27 28 29 30 31 32 32 33
5 5 6 7 7 8 9 9 10 10 11 12 13 13 14 14 15 16 17 18 19 20 21 22 22 23 24 25 27 28 30 31 32 33 34 35 36 37
7 7 8 9 9 10 11 11 12 13 14 15 15 16 17 17 18 19 20 21 22 23 24 24 26 27 28 29 30 31 33 34 35 36 37 38 40 40
9 9 10 11 11 12 13 13 14 15 16 17 18 18 19 20 20 21 22 23 24 25 26 26 28 29 31 32 34 35 36 37 38 39 40 41 42 43
11 12 13 13 14 14 15 15 16 17 18 18 19 20 21 22 23 24 25 26 27 28 29 29 30 32 34 35 36 38 39 40 41 42 43 44 45 46
13 14 15 15 16 17 17 18 19 19 20 21 22 22 24 25 26 27 28 29 29 30 31 33 34 35 36 38 39 40 41 42 44 45 45 46 47 48
15 16 17 17 18 19 20 21 21 22 23 24 24 25 26 28 29 30 31 31 33 33 34 36 37 38 38 39 41 42 43 44 45 47 48 49 50 51
18 18 19 20 20 21 22 23 24 25 25 26 27 28 29 31 32 33 34 34 35 36 37 38 39 40 41 42 42 44 45 46 48 49 50 51 52 53
20 21 21 22 23 23 24 25 26 27 28 29 30 31 32 33 34 35 36 37 38 39 40 40 41 42 43 44 45 46 47 48 50 51 52 53 54 55
22 23 23 24 24 25 26 27 29 30 31 31 32 33 34 35 36 36 37 39 40 41 42 44 45 45 46 47 47 48 49 50 51 53 54 55 56 57
24 25 25 26 26 27 28 30 31 32 33 33 34 35 36 37 37 39 40 41 42 43 44 46 47 48 48 48 49 50 51 52 53 54 55 55 56 57
27 27 27 28 29 30 30 32 33 34 35 35 36 37 39 39 40 41 43 44 45 45 46 46 47 49 50 51 52 53 54 55 55 56 56 56 57 58
29 29 29 30 31 32 33 34 35 36 36 37 38 39 40 41 42 43 45 46 46 47 47 48 49 50 51 52 54 55 56 56 56 56 57 57 57 58
31 31 32 33 34 34 35 36 37 37 38 39 40 41 42 43 45 46 46 47 48 48 49 51 52 53 54 54 55 56 57 57 57 56 57 57 57 57
33 34 34 35 35 36 37 38 39 39 40 41 42 43 44 45 46 47 48 48 49 51 52 53 54 56 57 56 56 56 57 58 57 57 57 57 57 57
35 36 36 37 38 38 39 40 41 42 43 44 45 46 47 47 48 48 49 50 51 53 54 55 57 58 58 58 58 57 57 58 58 58 58 58 57 57
36 37 38 39 40 41 41 42 43 44 45 46 47 48 48 49 49 50 51 52 53 54 56 57 58 58 59 59 59 58 57 57 58 58 58 59 59 58
38 39 40 40 41 42 43 44 45 46 47 48 48 49 49 50 50 51 52 53 55 56 58 58 58 59 60 59 59 58 57 57 57 57 57 57 58 57
Wind_Direction
75 69 63 61 60 59 55 52 49 44 22 358 346 340 335 317 313 311 307 303 292 285 278 273 271 270 268 268 269 271 272 272 273 274 273 274 274 272
62 60 54 54 49 44 38 32 26 13 1 350 345 338 338 329 318 314 311 306 299 294 287 277 274 274 273 274 275 276 276 277 277 278 277 277 277 275
56 51 43 40 32 28 22 19 10 0 352 345 338 334 328 324 322 318 316 314 308 300 296 289 284 282 280 280 281 282 283 283 282 282 280 279 279 279
36 31 28 22 15 10 7 4 360 357 350 342 336 332 328 322 320 316 313 309 310 308 303 297 293 288 286 285 284 284 284 284 284 284 282 281 279 278
13 13 8 2 358 356 355 350 347 346 342 337 332 328 324 321 317 315 314 310 306 306 303 299 294 290 288 288 288 288 287 286 286 285 285 284 283 282
340 343 342 340 338 338 337 334 333 332 330 330 325 323 322 320 316 315 314 311 307 304 302 299 296 292 290 289 289 289 288 287 287 286 285 284 283 282
317 318 321 322 322 322 322 320 320 321 321 321 318 316 316 314 311 310 310 309 307 305 303 301 298 295 293 291 291 290 289 289 288 287 286 285 284 283
301 304 309 313 315 315 317 315 315 315 315 315 312 312 311 310 308 307 307 307 306 304 303 302 299 297 295 295 294 293 291 290 290 289 287 286 285 284
298 300 303 306 307 308 310 311 311 310 310 310 310 309 308 308 308 307 306 306 305 305 304 303 301 300 298 297 296 295 293 292 291 290 288 287 287 286
295 298 301 302 304 305 306 308 307 307 308 308 308 307 306 307 308 308 306 306 305 305 304 304 302 301 300 299 297 296 294 293 292 291 289 288 287 286
291 295 298 300 302 303 304 305 304 304 305 306 306 305 305 306 306 307 306 305 304 304 304 304 303 302 301 300 298 297 295 294 293 293 291 289 288 286
291 294 296 298 300 301 302 303 302 302 303 304 303 303 304 305 306 307 307 305 304 304 304 304 303 302 301 301 299 298 296 295 295 294 293 292 290 289
290 293 295 297 299 301 302 301 301 301 302 302 302 303 304 304 305 306 307 305 305 304 304 304 304 304 303 302 301 300 299 297 296 296 295 293 292 290
289 291 294 296 298 300 301 301 301 302 302 301 301 302 304 304 305 305 306 307 306 305 305 304 304 304 304 304 303 302 302 300 299 298 297 296 293 291
288 291 294 296 298 299 300 301 301 302 302 301 301 302 303 304 304 304 305 306 306 305 304 305 304 304 304 304 304 303 303 302 301 300 299 298 296 294
287 290 293 295 297 298 299 300 301 302 302 302 302 302 303 304 304 304 305 305 305 305 304 304 304 304 304 304 304 304 304 304 303 302 300 299 298 297
286 289 291 294 295 297 298 299 301 301 302 302 302 302 303 303 304 304 305 305 306 306 306 305 304 305 305 305 305 306 306 305 304 303 302 301 300 299
286 288 290 292 293 295 297 298 300 300 301 301 302 302 302 303 304 304 305 305 306 306 306 306 305 305 305 306 306 306 306 305 304 303 302 302 301 300
286 288 289 290 292 294 296 298 299 300 301 302 302 303 303 303 304 304 305 305 305 306 306 306 306 306 305 305 306 305 305 305 304 303 302 302 301 301
286 288 289 290 291 293 296 298 299 300 301 301 302 303 303 304 304 304 304 305 305 306 306 306 306 307 307 307 307 306 305 304 304 303 303 303 302 302
287 288 289 290 291 293 295 297 298 299 300 301 302 303 303 304 304 304 304 304 305 305 306 306 307 307 307 307 307 307 306 305 305 305 304 303 303 302
287 289 290 291 292 293 295 296 297 298 299 300 301 302 302 303 304 304 304 305 305 306 306 307 307 307 307 307 306 306 306 305 305 305 305 305 305 305
288 289 290 291 292 293 294 296 297 299 299 300 301 301 301 302 302 303 304 304 305 306 306 307 307 307 308 307 307 306 306 305 306 306 306 306 306 306
Height
5887 5886 5886 5885 5884 5883 5883 5882 5882 5881 5880 5879 5878 5877 5876 5874 5873 5872 5871 5870 5869 5869 5868 5868 5868 5868 5868 5868 5868 5868 5867 5867 5866 5866 5865 5864 5862 5861
5888 5887 5887 5886 5885 5885 5884 5883 5882 5882 5880 5879 5878 5877 5875 5874 5873 5872 5870 5869 5867 5866 5865 5865 5865 5865 5865 5865 5865 5864 5864 5863 5863 5862 5861 5860 5859 5858
5889 5888 5888 5887 5886 5885 5884 5883 5882 5881 5880 5879 5877 5876 5875 5873 5872 5870 5869 5867 5866 5864 5863 5862 5862 5861 5861 5861 5861 5861 5860 5859 5858 5858 5857 5856 5855 5854
5890 5889 5888 5888 5887 5886 5885 5883 5882 5881 5880 5878 5877 5875 5874 5872 5870 5869 5867 5865 5864 5862 5860 5859 5858 5858 5857 5857 5857 5856 5855 5854 5853 5852 5851 5850 5849 5848
5890 5889 5889 5888 5887 5886 5884 5883 5882 5880 5879 5877 5876 5874 5872 5871 5869 5867 5865 5863 5861 5859 5857 5856 5854 5853 5853 5852 5852 5851 5850 5848 5847 5845 5844 5843 5842 5840
5890 5889 5888 5887 5886 5885 5884 5883 5881 5880 5878 5876 5874 5873 5871 5869 5867 5865 5863 5860 5858 5856 5853 5851 5850 5848 5848 5847 5846 5844 5843 5842 5840 5838 5836 5835 5833 5832
5889 5889 5888 5887 5885 5884 5883 5881 5880 5878 5877 5875 5873 5870 5868 5866 5864 5862 5859 5857 5854 5851 5849 5846 5844 5843 5842 5840 5839 5837 5835 5834 5832 5830 5828 5826 5824 5822
5888 5887 5886 5885 5884 5883 5881 5879 5878 5876 5874 5872 5870 5868 5865 5863 5861 5858 5855 5853 5850 5847 5844 5841 5839 5837 5835 5833 5831 5829 5827 5824 5822 5820 5817 5815 5812 5810
5886 5885 5884 5883 5882 5880 5879 5877 5875 5873 5871 5869 5867 5864 5862 5859 5857 5854 5851 5848 5845 5842 5839 5835 5832 5830 5827 5824 5822 5820 5817 5814 5811 5808 5805 5803 5800 5797
5884 5883 5882 5881 5879 5877 5876 5874 5872 5869 5867 5865 5862 5860 5857 5854 5852 5849 5845 5842 5839 5835 5832 5829 5825 5822 5819 5816 5812 5809 5806 5803 5799 5796 5792 5789 5787 5784
5881 5880 5879 5877 5876 5874 5872 5870 5868 5865 5863 5860 5857 5854 5852 5849 5846 5843 5839 5836 5832 5828 5825 5821 5817 5814 5810 5806 5802 5798 5794 5791 5787 5782 5779 5775 5772 5769
5877 5876 5874 5873 5871 5869 5867 5865 5863 5860 5858 5855 5852 5849 5846 5842 5839 5835 5832 5828 5824 5820 5816 5812 5808 5804 5801 5796 5791 5786 5782 5778 5774 5769 5764 5760 5756 5752
5873 5871 5870 5868 5866 5864 5862 5859 5857 5854 5851 5848 5845 5842 5839 5835 5831 5827 5823 5819 5815 5811 5807 5803 5798 5794 5790 5785 5780 5774 5769 5764 5759 5754 5749 5744 5740 5735
5867 5866 5864 5862 5860 5858 5856 5853 5850 5847 5844 5841 5838 5835 5831 5827 5823 5819 5815 5810 5806 5801 5797 5792 5788 5783 5778 5773 5768 5762 5756 5750 5745 5740 5734 5729 5724 5718
5862 5860 5858 5856 5854 5852 5849 5846 5843 5840 5837 5834 5830 5827 5823 5819 5815 5810 5806 5801 5796 5791 5786 5781 5776 5771 5765 5760 5755 5749 5743 5737 5730 5724 5718 5712 5706 5701
5855 5853 5851 5849 5847 5844 5841 5838 5835 5832 5829 5825 5822 5818 5813 5809 5805 5801 5796 5791 5786 5781 5775 5769 5764 5758 5752 5747 5741 5735 5728 5721 5715 5708 5702 5695 5689 5682
5848 5846 5844 5842 5839 5836 5834 5830 5827 5824 5820 5816 5812 5808 5804 5800 5795 5790 5785 5780 5775 5770 5764 5757 5751 5745 5739 5733 5727 5720 5713 5706 5699 5692 5685 5679 5672 5665
5840 5838 5836 5834 5831 5828 5825 5822 5818 5815 5811 5807 5803 5799 5794 5789 5785 5779 5774 5769 5763 5758 5752 5745 5739 5733 5727 5720 5712 5705 5698 5691 5683 5676 5669 5662 5656 5649
5832 5830 5828 5825 5822 5819 5816 5812 5809 5805 5801 5797 5792 5788 5783 5778 5773 5768 5762 5757 5751 5745 5739 5732 5726 5719 5713 5707 5700 5690 5682 5675 5667 5660 5653 5646 5639 5632
5823 5821 5818 5815 5813 5809 5806 5802 5798 5794 5790 5786 5781 5777 5772 5767 5761 5756 5750 5744 5738 5732 5726 5719 5712 5704 5697 5690 5684 5676 5666 5658 5651 5644 5637 5630 5623 5616
5813 5811 5808 5805 5802 5799 5795 5791 5788 5783 5779 5775 5770 5765 5759 5754 5748 5743 5737 5731 5725 5718 5712 5705 5697 5689 5681 5674 5668 5661 5652 5642 5634 5627 5619 5613 5606 5600
5803 5800 5798 5795 5791 5788 5784 5780 5776 5772 5767 5762 5758 5752 5747 5741 5735 5730 5724 5717 5711 5704 5697 5690 5682 5674 5666 5658 5651 5644 5637 5628 5620 5611 5603 5595 5587 5581
5792 5789 5786 5783 5780 5776 5772 5768 5764 5759 5755 5749 5744 5739 5733 5728 5722 5716 5710 5703 5697 5690 5682 5674 5666 5658 5650 5642 5635 5628 5621 5613 5605 5597 5590 5580 5572 5565